Location: La Fredeussais
(48.1780°N, 1.3980°W)
Time: 04:51:17
(UTC+00:00)

STARLINK-2695 - Pass Details

Date: 06 December 2021
Orbit: 546 x 548 km, 53.1° (Epoch: 25 January)

Event Time Altitude Azimuth Distance (km) Brightness Sun altitude
Rises 19:25:41 0° 293° (WNW) 2,723 8.1 -31.3°
Reaches altitude 10° 19:27:58 10° 298° (WNW) 1,827 7.0 -31.6°
Enters shadow 19:29:16 19° 303° (WNW) 1,339 6.1 -31.9°
